Regional Weather Roundup
Issued by NWS

Home | Current Version | Previous Version | Text Only | Print | Product List | Glossary On
Versions: 1 2 3 4 5 6 7 8 9 10 11 12 13 14 15 16 17 18 19 20 21 22 23 24 25 26 27 28 29 30 31 32 33 34 35 36 37 38 39 40 41 42 43 44 45 46 47 48 49 50
000
ASUS45 KABQ 260010
RWRNM
NEW MEXICO REGIONAL WEATHER ROUNDUP
NATIONAL WEATHER SERVICE ALBUQUERQUE NM
500 PM MST SUN FEB 25 2018

NOTE: "FAIR" MEANS FEW OR NO CLOUDS BELOW 12,000 FEET AGL WITH NO
       SIGNIFICANT WEATHER OR OBSTRUCTIONS TO VISION.

      THIS PRODUCT IS RELEASED AS TWO VERSIONS.  ONE VERSION NEAR
      THE TOP OF THE HOUR CONTAINING PRELIMINARY DATA FROM ALBUQUERQUE
      AND OTHER STATIONS.  A FINAL VERSION WITH ADDITIONAL DATA IS
      ISSUED ABOUT 10 MINUTES AFTER THE HOUR.

NMZ501-503-504-510>518-260100-
NORTHWEST PLATEAU/NORTHCENTRAL MOUNTAINS

CITY           SKY/WX    TMP DP  RH WIND       PRES   REMARKS
FARMINGTON     FAIR      39   3  22 W13       30.13R WCI  31
6HR MIN TEMP:  34; 6HR MAX TEMP:  41;

LOS ALAMOS     FAIR      34   3  27 NE5       30.11S WCI  30
SANTA FE       FAIR      40   2  20 N10       30.10R WCI  33
6HR MIN TEMP:  35; 6HR MAX TEMP:  42; 6HR PCP: TRACE;

TAOS           FAIR      36   3  25 W9        30.10R WCI  29
ANGEL FIRE     FAIR      27   1  33 W24G31    30.04R WCI  12

$$
NMZ402-403-502-505>509-260100-
WESTCENTRAL MOUNTAINS/SOUTHWEST MOUNTAINS

CITY           SKY/WX    TMP DP  RH WIND       PRES   REMARKS
GALLUP         FAIR      41  10  28 S12       30.12F
6HR MIN TEMP:  31; 6HR MAX TEMP:  42;

GRANTS         FAIR      41   4  21 N9        30.15R
SILVER CITY    FAIR      51   4  14 W8        30.12R

$$
NMZ407-409-411-412-260100-
SOUTHERN DESERTS

CITY           SKY/WX    TMP DP  RH WIND       PRES   REMARKS
DEMING         FAIR      55   3  12 SW16      30.12R
6HR MIN TEMP:  51; 6HR MAX TEMP:  57;

LAS CRUCES     FAIR      56   3  11 NE6       30.12S
HOLLOMAN AFB   FAIR      53   2  12 N13       30.15R
ALAMOGORDO     FAIR      54   0  11 N16       30.14R
T OR C         FAIR      53   1  12 E10       30.11R
6HR MIN TEMP:  48; 6HR MAX TEMP:  56;


$$
NMZ519>523-260100-
CENTRAL VALLEYS/CENTRAL HIGHLANDS

CITY           SKY/WX    TMP DP  RH WIND       PRES   REMARKS
ALBUQUERQUE    FAIR      43   7  22 N13       30.15R
6HR MIN TEMP:  37; 6HR MAX TEMP:  44;

DOUBLE EAGLE   SUNNY     41   7  24 NW9       30.15R
MORIARTY ARPT  FAIR      41   3  20 NW15      30.13R
6HR MIN TEMP:  37; 6HR MAX TEMP:  43;

CLINES CORNERS FAIR      34   5  29 NW21G32   30.10R WCI  22
6HR MIN TEMP:  30; 6HR MAX TEMP:  37;

BELEN          FAIR      47  -1  13 NE6       30.14R
6HR MIN TEMP:  41; 6HR MAX TEMP:  48;

SOCORRO        FAIR      50   1  13 N8G17     30.12R
6HR MIN TEMP:  45; 6HR MAX TEMP:  51;


$$
NMZ524>526-539-540-260100-
SOUTHCENTRAL MOUNTAINS

CITY           SKY/WX    TMP DP  RH WIND       PRES   REMARKS
RUIDOSO        NOT AVBL

$$
NMZ527>531-260100-
NORTHEAST HIGHLANDS/NORTHEAST PLAINS

CITY           SKY/WX    TMP DP  RH WIND       PRES   REMARKS
LAS VEGAS      FAIR      38  -1  19 E3        30.03R
6HR MIN TEMP:  33; 6HR MAX TEMP:  39;

RATON          FAIR      41 -13   9 SW7       29.97R
6HR MIN TEMP:  35; 6HR MAX TEMP:  43;

CLAYTON        FAIR      44 -13   8 W10       29.99R
6HR MIN TEMP:  40; 6HR MAX TEMP:  48;


$$
NMZ532>537-260100-
EASTCENTRAL PLAINS

CITY           SKY/WX    TMP DP  RH WIND       PRES   REMARKS
SANTA ROSA     FAIR      47   0  14 W13G25    30.04S
TUCUMCARI      FAIR      51  -1  11 NW15      30.02R
6HR MIN TEMP:  50; 6HR MAX TEMP:  56;

CANNON AFB     FAIR      49   5  16 W15G23    30.06R
6HR MIN TEMP:  49; 6HR MAX TEMP:  52;

CLOVIS AIRPORT FAIR      49   6  17 W18G24    30.06R

$$
NMZ028-029-538-260100-
SOUTHEAST PLAINS

CITY           SKY/WX    TMP DP  RH WIND       PRES   REMARKS
ROSWELL        FAIR      56   1  10 NW22G32   30.06R
6HR MIN TEMP:  53; 6HR MAX TEMP:  60;

ARTESIA        FAIR      57   3  11 N18G24    30.07R
CARLSBAD       FAIR      59   1   9 N17G23    30.06R
6HR MIN TEMP:  57; 6HR MAX TEMP:  66;

HOBBS          CLEAR     57  -4   8 NW21G30   30.06R


$$



USA.gov is the U.S. government's official web portal to all federal, state and local government web resources and services.